This is the latest recevied weather packets stored in our database for station/object F5MAP-5. If no packets are shown the sender has not sent any weather packets the latest 10 day(s).
| Time | Temp. | Humidity | Pressure | Rain* | Wind** | Luminosity | Snow |
|---|---|---|---|---|---|---|---|
| 1778010732 | 13.89° C | 85% | 1008.7 hPa | 0 mm | - | 0 W/m² | - |
| 1778010132 | 13.89° C | 85% | 1008.5 hPa | 0 mm | - | 0 W/m² | - |
| 1778009533 | 14.44° C | 85% | 1008.6 hPa | 0 mm | - | 0 W/m² | - |
| 1778008932 | 14.44° C | 84% | 1008.5 hPa | 0 mm | - | 0 W/m² | - |
| 1778008331 | 14.44° C | 84% | 1008.4 hPa | 0 mm | - | 0 W/m² | - |
| 1778007732 | 14.44° C | 84% | 1008.2 hPa | 0 mm | - | 0 W/m² | - |
| 1778007131 | 15° C | 84% | 1008.2 hPa | 0 mm | - | 0 W/m² | - |
| 1778006531 | 15.56° C | 85% | 1008.2 hPa | 0 mm | - | 0 W/m² | - |
| 1778005931 | 15.56° C | 85% | 1008.1 hPa | 0 mm | - | 5 W/m² | - |
| 1778005331 | 15.56° C | 84% | 1007.9 hPa | 0 mm | - | 12 W/m² | - |
| 1778004731 | 15.56° C | 82% | 1007.8 hPa | 0 mm | - | 12 W/m² | - |
| 1778004131 | 16.11° C | 83% | 1007.9 hPa | 0 mm | - | 9 W/m² | - |
| 1778003531 | 16.11° C | 83% | 1007.8 hPa | 0 mm | - | 7 W/m² | - |
| 1778002931 | 16.11° C | 84% | 1007.8 hPa | 0 mm | - | 11 W/m² | - |
| 1778002333 | 16.11° C | 84% | 1007.7 hPa | 0 mm | - | 28 W/m² | - |
| 1778001731 | 16.11° C | 84% | 1007.7 hPa | 0 mm | - | 44 W/m² | - |
| 1778001131 | 16.11° C | 84% | 1007.6 hPa | 0 mm | - | 62 W/m² | - |
| 1778000531 | 16.11° C | 84% | 1007.5 hPa | 0 mm | - | 40 W/m² | - |
| 1777999931 | 16.67° C | 85% | 1007.6 hPa | 0 mm | - | 44 W/m² | - |
| 1777999331 | 16.67° C | 85% | 1007.8 hPa | 0 mm | - | 39 W/m² | - |
| 1777998731 | 16.67° C | 85% | 1007.7 hPa | 0 mm | - | 72 W/m² | - |
| 1777998131 | 16.67° C | 85% | 1007.7 hPa | 0 mm | - | 86 W/m² | - |
| 1777997531 | 16.11° C | 86% | 1007.6 hPa | 0 mm | - | 116 W/m² | - |
| 1777996930 | 16.67° C | 86% | 1007.6 hPa | 0 mm | - | 130 W/m² | - |
| 1777996331 | 16.67° C | 87% | 1007.6 hPa | 0 mm | - | 135 W/m² | - |
* Rain latest hour (hover to see other rain measurements)
** Current wind speed in m/s (hover to see current wind gust speed)